Date String (YYYY-MM-DD hh:mm:ss) UTC,Instrument flags,Ambient pressure (hPa),Sample flow (lpm),Bypass flow (lpm),Sample temperature (°C),Ambient temperature (°C),ASC tube jacket temperature (°C),LED temperature (°C),Box temperature (°C),Sample RH (%),Span deviation,Mass concentration (μg/m³),Mass concentration (μg/m³),Mass concentration (μg/m³)
DateTimeUTC,F1_M11,P_M11,Q1_M11,Q2_M11,T1_M11,T2_M11,T3_M11,T4_M11,T5_M11,U1_M11,ZSPAN_M11,X0_M11,X2_M11,X1_M11
2022-10-03 10:00:00,,0829.2,5.01,0.00,30.0,28.5,00.0,38.7,31.8,21.3,0000.0,0007.34,0004.19,0003.93
2022-10-03 10:01:00,,0829.3,5.01,0.00,30.0,28.4,00.0,38.7,31.7,21.3,0000.0,0007.37,0004.21,0003.93
2022-10-03 10:02:00,,0829.2,4.98,0.00,30.0,28.4,00.0,38.7,31.7,21.3,0000.0,0006.76,0004.20,0003.92
2022-10-03 10:03:00,,0829.3,5.01,0.00,29.9,28.3,00.0,38.7,31.7,21.3,0000.0,0006.91,0004.20,0003.91
2022-10-03 10:04:00,,0829.3,5.01,0.00,29.9,28.3,00.0,38.7,31.7,21.4,0000.0,0006.96,0004.18,0003.89
2022-10-03 10:05:00,,0829.2,4.99,0.00,29.9,28.3,00.0,38.7,31.7,21.5,0000.0,0006.83,0004.15,0003.86
2022-10-03 10:06:00,,0829.2,5.01,0.00,29.9,28.2,00.0,38.7,31.7,21.3,0000.0,0006.80,0004.12,0003.83
2022-10-03 10:07:00,,0829.2,5.01,0.00,29.9,28.1,00.0,38.7,31.6,21.3,0000.0,0006.77,0004.10,0003.80
2022-10-03 10:08:00,,0829.2,4.98,0.00,29.9,28.1,00.0,38.7,31.6,21.4,0000.0,0006.59,0004.06,0003.77
2022-10-03 10:09:00,,0829.2,5.00,0.00,29.8,28.2,00.0,38.7,31.6,21.5,0000.0,0006.47,0004.02,0003.74
2022-10-03 10:10:00,,0829.3,5.01,0.00,29.8,28.2,00.0,38.7,31.6,21.4,0000.0,0006.35,0004.00,0003.72
2022-10-03 10:11:00,,0829.2,5.01,0.00,29.8,28.2,00.0,38.6,31.6,21.4,0000.0,0006.18,0003.97,0003.69
2022-10-03 10:12:00,,0829.2,4.99,0.00,29.8,28.2,00.0,38.6,31.6,21.4,0000.0,0006.04,0003.92,0003.67
2022-10-03 10:13:00,,0829.1,5.01,0.00,29.8,28.2,00.0,38.6,31.6,21.4,0000.0,0006.12,0003.90,0003.65
2022-10-03 10:14:00,,0829.1,4.98,0.00,29.8,28.2,00.0,38.6,31.6,21.4,0000.0,0005.96,0003.88,0003.64
2022-10-03 10:15:00,,0829.1,5.01,0.00,29.8,28.2,00.0,38.6,31.6,21.5,0000.0,0005.91,0003.89,0003.64
2022-10-03 10:16:00,,0829.1,4.99,0.00,29.8,28.2,00.0,38.6,31.6,21.5,0000.0,0006.08,0003.91,0003.63
2022-10-03 10:17:00,,0829.1,5.01,0.00,29.8,28.3,00.0,38.6,31.6,21.5,0000.0,0006.99,0003.90,0003.63
2022-10-03 10:18:00,,0829.2,5.01,0.00,29.8,28.3,00.0,38.6,31.6,21.8,0000.0,0008.03,0003.91,0003.64
2022-10-03 10:19:00,,0829.2,4.99,0.00,29.8,28.4,00.0,38.6,31.6,21.9,0000.0,0008.14,0003.94,0003.64
2022-10-03 10:20:00,,0829.2,5.01,0.00,29.8,28.4,00.0,38.6,31.7,21.8,0000.0,0008.21,0003.97,0003.64
2022-10-03 10:21:00,,0829.2,4.99,0.00,29.8,28.4,00.0,38.6,31.7,21.8,0000.0,0008.26,0003.99,0003.65
2022-10-03 10:22:00,,0829.2,5.01,0.00,29.8,28.5,00.0,38.6,31.7,21.7,0000.0,0008.65,0003.97,0003.65
2022-10-03 10:23:00,,0829.2,4.99,0.00,29.8,28.5,00.0,38.6,31.7,21.7,0000.0,0008.72,0003.98,0003.65
2022-10-03 10:24:00,,0829.2,5.01,0.00,29.9,28.5,00.0,38.6,31.7,21.6,0000.0,0008.59,0003.97,0003.65
2022-10-03 10:25:00,,0829.1,4.99,0.00,29.9,28.5,00.0,38.6,31.7,21.5,0000.0,0008.57,0003.96,0003.65
2022-10-03 10:26:00,,0829.1,5.01,0.00,29.9,28.5,00.0,38.6,31.7,21.6,0000.0,0008.52,0003.93,0003.64
2022-10-03 10:27:00,,0829.1,4.98,0.00,29.9,28.5,00.0,38.6,31.7,21.6,0000.0,0008.52,0003.88,0003.64
2022-10-03 10:28:00,,0829.0,5.01,0.00,29.9,28.5,00.0,38.6,31.7,21.7,0000.0,0008.24,0003.88,0003.64
2022-10-03 10:29:00,,0829.1,5.00,0.00,29.9,28.5,00.0,38.6,31.7,21.6,0000.0,0007.16,0003.87,0003.62
2022-10-03 10:30:00,,0829.1,5.01,0.00,29.9,28.5,00.0,38.6,31.8,21.6,0000.0,0007.03,0003.85,0003.62
2022-10-03 10:31:00,,0829.0,4.99,0.00,29.9,28.5,00.0,38.6,31.7,21.6,0000.0,0007.05,0003.84,0003.61
2022-10-03 10:32:00,,0829.1,5.01,0.00,29.9,28.5,00.0,38.6,31.7,21.6,0000.0,0006.99,0003.82,0003.60
2022-10-03 10:33:00,,0829.1,5.01,0.00,29.9,28.5,00.0,38.6,31.7,21.6,0000.0,0006.31,0003.82,0003.60
2022-10-03 10:34:00,,0829.1,4.99,0.00,29.9,28.6,00.0,38.7,31.7,21.6,0000.0,0006.00,0003.81,0003.60
2022-10-03 10:35:00,,0829.1,5.01,0.00,29.9,28.6,00.0,38.7,31.8,21.6,0000.0,0007.35,0003.82,0003.60
2022-10-03 10:36:00,,0829.1,4.99,0.00,29.9,28.6,00.0,38.7,31.7,21.6,0000.0,0007.47,0003.85,0003.60
2022-10-03 10:37:00,,0829.1,5.01,0.00,29.9,28.5,00.0,38.7,31.7,21.6,0000.0,0007.52,0003.88,0003.61
2022-10-03 10:38:00,,0829.1,4.98,0.00,29.9,28.6,00.0,38.7,31.8,21.6,0000.0,0007.40,0003.88,0003.61
2022-10-03 10:39:00,,0829.1,5.01,0.00,30.0,28.6,00.0,38.7,31.7,21.6,0000.0,0007.32,0003.88,0003.60
2022-10-03 10:40:00,,0829.1,5.00,0.00,30.0,28.6,00.0,38.7,31.8,21.5,0000.0,0007.32,0003.88,0003.61
2022-10-03 10:41:00,,0829.0,5.00,0.00,29.9,28.6,00.0,38.7,31.7,21.5,0000.0,0007.28,0003.88,0003.61
2022-10-03 10:42:00,,0829.1,5.01,0.00,30.0,28.6,00.0,38.7,31.8,21.6,0000.0,0007.44,0003.89,0003.62
2022-10-03 10:43:00,,0829.1,5.01,0.00,30.0,28.6,00.0,38.7,31.8,21.6,0000.0,0008.12,0003.90,0003.63
2022-10-03 10:44:00,,0829.1,4.99,0.00,30.0,28.6,00.0,38.7,31.8,21.7,0000.0,0008.14,0003.90,0003.63
2022-10-03 10:45:00,,0829.1,5.01,0.00,30.0,28.6,00.0,38.7,31.8,21.7,0000.0,0008.19,0003.91,0003.63
2022-10-03 10:46:00,,0829.1,4.99,0.00,30.0,28.6,00.0,38.7,31.8,21.6,0000.0,0007.54,0003.91,0003.63
2022-10-03 10:47:00,,0829.0,5.02,0.00,30.0,28.6,00.0,38.7,31.8,21.6,0000.0,0007.38,0003.88,0003.63
2022-10-03 10:48:00,,0829.1,4.99,0.00,30.0,28.6,00.0,38.7,31.8,21.5,0000.0,0007.42,0003.89,0003.64
2022-10-03 10:49:00,,0829.1,5.00,0.00,30.0,28.6,00.0,38.7,31.8,21.4,0000.0,0007.41,0003.88,0003.62
2022-10-03 10:50:00,,0829.1,5.00,0.00,30.0,28.6,00.0,38.7,31.8,21.3,0000.0,0007.43,0003.89,0003.61
2022-10-03 10:51:00,,0829.1,4.98,0.00,30.0,28.6,00.0,38.7,31.8,21.3,0000.0,0007.47,0003.89,0003.60
2022-10-03 10:52:00,,0829.1,5.01,0.00,30.0,28.6,00.0,38.7,31.8,21.3,0000.0,0007.45,0003.86,0003.58
2022-10-03 10:53:00,,0829.1,4.99,0.00,30.0,28.6,00.0,38.7,31.8,21.2,0000.0,0007.43,0003.86,0003.56
2022-10-03 10:54:00,,0829.1,5.01,0.00,30.0,28.6,00.0,38.7,31.8,21.2,0000.0,0006.10,0003.81,0003.54
2022-10-03 10:55:00,,0829.0,4.99,0.00,30.0,28.6,00.0,38.7,31.9,21.2,0000.0,0006.51,0003.81,0003.52
2022-10-03 10:56:00,,0829.0,5.01,0.00,30.0,28.6,00.0,38.7,31.9,21.2,0000.0,0006.47,0003.79,0003.51
2022-10-03 10:57:00,,0829.1,4.99,0.00,30.0,28.6,00.0,38.8,31.9,21.2,0000.0,0006.41,0003.79,0003.50
2022-10-03 10:58:00,,0829.0,5.01,0.00,30.0,28.6,00.0,38.8,31.9,21.3,0000.0,0006.38,0003.79,0003.49
2022-10-03 10:59:00,,0829.0,5.01,0.00,30.0,28.6,00.0,38.8,31.9,21.2,0000.0,0006.24,0003.76,0003.47
